Regional Weather Roundup
Issued by NWS

Home | Current Version | Previous Version | Graphics & Text | Print | Product List | Glossary On
Versions: 1 2 3 4 5 6 7 8 9 10 11 12 13 14 15 16 17 18 19 20 21 22 23 24 25 26 27 28 29 30 31 32 33 34 35 36 37 38 39 40 41 42 43 44 45 46 47 48 49 50
000
ASUS43 KOAX 240503
RWRNE

WEATHER ROUNDUP FOR NEBRASKA
NATIONAL WEATHER SERVICE OMAHA NE
1200 AM CDT THU MAY 24 2018

NOTES: SATELLITE DATA IS BEING USED TO AUGMENT CLOUD COVER ABOVE
       12000 FEET.
       "FAIR" INDICATES FEW OR NO CLOUDS BELOW 12,000 FEET WITH NO
       SIGNIFICANT WEATHER AND/OR OBSTRUCTIONS TO VISIBILITY.


NEZ001>004-019>022-054>056-240600-
NEBRASKA PANHANDLE

CITY           SKY/WX    TMP DP  RH WIND       PRES   REMARKS
SCOTTSBLUFF    CLEAR     57  50  77 E3        29.97R
ALLIANCE       MOCLDY    58  52  80 E9        29.98R
CHADRON        PTCLDY    54  52  93 W3        29.93R
GORDON         FAIR      61  51  70 E5        29.96S
KIMBALL        PTCLDY    57  48  72 NW7       30.02S
SIDNEY         CLOUDY    62  54  74 N12       29.98R
$$

NEZ057>060-069>072-079>082-240600-
SOUTHWEST NEBRASKA

CITY           SKY/WX    TMP DP  RH WIND       PRES   REMARKS
NORTH PLATTE   MOCLDY    72  61  68 SE10      29.96R
IMPERIAL       MOCLDY    71  60  68 S16G25    29.92S
LEXINGTON      MOCLDY    70  60  71 SE12G17   29.97R
MCCOOK         CLOUDY    73  57  57 S13G21    29.95R
OGALLALA       MOCLDY    70  60  70 SE10      29.92R
$$

NEZ005>010-023>029-035>040-094-240600-
NORTH CENTRAL NEBRASKA

CITY           SKY/WX    TMP DP  RH WIND       PRES   REMARKS
VALENTINE      LGT RAIN  67  59  75 SW16G28   30.00R
AINSWORTH      CLOUDY    70  54  56 SW9       30.01R
BROKEN BOW     PTCLDY    70  61  73 SE12      29.97R
O`NEILL        MOCLDY    74  62  67 S10       29.96S
ORD            MOCLDY    70  62  76 S6        29.96R
THEDFORD       TSTM      63  56  78 S9        29.99F
$$

NEZ041-046>049-061>064-073>077-083>087-240600-
SOUTH CENTRAL NEBRASKA

CITY           SKY/WX    TMP DP  RH WIND       PRES   REMARKS
GRAND ISLAND   MOCLDY    75  62  64 S14       29.98S
AURORA         PTCLDY    75  61  61 S16       29.99S
HASTINGS       CLOUDY    76  64  66 S16G26    29.99R
HEBRON         MOCLDY    77  65  65 S15       30.00R
HOLDREGE       CLOUDY    67  62  82 S10       29.98R
KEARNEY        CLOUDY    71  61  70 S14       29.98R
YORK           PTCLDY    75  64  69 S14       29.99S
$$

NEZ011>018-030>034-042>045-240600-
NORTHEAST NEBRASKA

CITY           SKY/WX    TMP DP  RH WIND       PRES   REMARKS
NORFOLK        PTCLDY    75  60  59 S14       29.97S
ALBION         MOCLDY    73  64  73 S9        29.98S
BLAIR          CLOUDY    78  62  57 S13       30.02S
COLUMBUS       CLOUDY    75  61  61 SE10      29.99S
FREMONT        PTCLDY    79  62  56 SE14      30.00F
TEKAMAH        PTCLDY    72  63  73 SE12      29.99F
WAYNE          PTCLDY    74  64  72 S13       29.98R
$$

NEZ050>053-065>068-078-088>093-240600-
SOUTHEAST NEBRASKA

CITY           SKY/WX    TMP DP  RH WIND       PRES   REMARKS
LINCOLN        CLOUDY    77  63  61 S15       30.00F
OMAHA EPPLEY   CLOUDY    77  62  59 S7        30.00F
BEATRICE       CLOUDY    77  66  68 S9        30.01S
FALLS CITY     CLOUDY    76  64  66 S9        30.02F
NEBRASKA CITY  CLOUDY    75  64  67 S9        30.03F
PLATTSMOUTH    CLOUDY    76  62  62 S9        30.02F
$$

NEZ044-045-051>053-067-240600-
OMAHA AREA

CITY           SKY/WX    TMP DP  RH WIND       PRES   REMARKS
OMAHA EPPLEY   CLOUDY    77  62  59 S7        30.00F
BLAIR          CLOUDY    78  62  57 S13       30.02S
FREMONT        PTCLDY    79  62  56 SE14      30.00F
MILLARD        CLOUDY    76  64  65 SE5       30.01F
OFFUTT AFB     CLOUDY    73  63  72 E8        30.00F
PLATTSMOUTH    CLOUDY    76  62  62 S9        30.02F
WAHOO          FAIR      75  60  60 SE12      30.00F
$$




USA.gov is the U.S. government's official web portal to all federal, state and local government web resources and services.